�������l�o���
Date,Time,MP-1(��Sv/h),MP-2(��Sv/h),MP-3(��Sv/h),MP-4(��Sv/h),MP-5(��Sv/h),MP-6(��Sv/h),MP-7(��Sv/h),MP-8(��Sv/h),����,����(m/s),���J
2017/11/02,00:00,0.900,1.437,0.903,1.703,1.154,0.499,0.904,0.843,�k��,7.3,��
2017/11/02,00:10,0.902,1.434,0.905,1.704,1.156,0.499,0.903,0.844,�k��,6.2,��
2017/11/02,00:20,0.902,1.437,0.907,1.704,1.155,0.499,0.904,0.843,�k��,6.4,��
2017/11/02,00:30,0.903,1.436,0.906,1.706,1.156,0.499,0.903,0.842,�k��,7.0,��
2017/11/02,00:40,0.903,1.433,0.905,1.701,1.157,0.499,0.903,0.843,�k��,6.2,��
2017/11/02,00:50,0.904,1.437,0.903,1.703,1.152,0.499,0.903,0.843,�k��,5.2,��
2017/11/02,01:00,0.903,1.436,0.906,1.702,1.155,0.498,0.904,0.844,�k�k��,4.9,��
2017/11/02,01:10,0.902,1.434,0.905,1.701,1.157,0.498,0.905,0.843,�k�k��,4.3,��
2017/11/02,01:20,0.904,1.435,0.905,1.704,1.156,0.499,0.902,0.843,�k�k��,4.1,��
2017/11/02,01:30,0.902,1.438,0.904,1.704,1.154,0.497,0.903,0.843,�k�k��,4.7,��
2017/11/02,01:40,0.902,1.438,0.906,1.703,1.156,0.499,0.902,0.845,�k��,6.8,��
2017/11/02,01:50,0.903,1.435,0.904,1.705,1.156,0.499,0.905,0.844,�k�k��,5.5,��
2017/11/02,02:00,0.903,1.436,0.906,1.705,1.158,0.500,0.904,0.843,�k�k��,5.2,��
2017/11/02,02:10,0.903,1.438,0.905,1.701,1.157,0.497,0.905,0.843,�k�k��,4.4,��
2017/11/02,02:20,0.904,1.436,0.904,1.705,1.155,0.499,0.905,0.844,�k��,4.0,��
2017/11/02,02:30,0.902,1.436,0.903,1.704,1.155,0.498,0.904,0.842,��,3.3,��
2017/11/02,02:40,0.902,1.436,0.904,1.706,1.153,0.499,0.904,0.843,�쐼,2.3,��
2017/11/02,02:50,0.904,1.437,0.907,1.704,1.156,0.499,0.905,0.842,���쐼,2.3,��
2017/11/02,03:00,0.902,1.436,0.902,1.702,1.156,0.498,0.906,0.845,�쐼,3.1,��
2017/11/02,03:10,0.903,1.434,0.903,1.704,1.157,0.498,0.902,0.842,�쐼,3.2,��
2017/11/02,03:20,0.901,1.437,0.904,1.700,1.155,0.499,0.904,0.843,��쐼,2.6,��
2017/11/02,03:30,0.903,1.437,0.904,1.704,1.156,0.497,0.905,0.843,�쐼,3.4,��
2017/11/02,03:40,0.901,1.435,0.905,1.703,1.154,0.499,0.904,0.843,���쐼,3.3,��
2017/11/02,03:50,0.902,1.435,0.904,1.702,1.155,0.499,0.904,0.843,�쐼,1.7,��
2017/11/02,04:00,0.901,1.435,0.906,1.700,1.156,0.498,0.904,0.841,�쐼,1.5,��
2017/11/02,04:10,0.902,1.434,0.903,1.703,1.154,0.496,0.904,0.842,�쓌,2.0,��
2017/11/02,04:20,0.902,1.436,0.904,1.704,1.155,0.499,0.905,0.843,�쓌,1.5,��
2017/11/02,04:30,0.900,1.433,0.905,1.702,1.157,0.499,0.904,0.842,��쓌,0.8,��
2017/11/02,04:40,0.902,1.435,0.903,1.701,1.157,0.497,0.905,0.843,��,0.6,��
2017/11/02,04:50,0.902,1.435,0.904,1.704,1.155,0.498,0.903,0.842,���k��,1.2,��
2017/11/02,05:00,0.903,1.436,0.904,1.704,1.156,0.497,0.905,0.843,�k��,1.5,��
2017/11/02,05:10,0.901,1.437,0.904,1.704,1.154,0.498,0.906,0.843,�k��,2.2,��
2017/11/02,05:20,0.903,1.438,0.905,1.701,1.158,0.496,0.903,0.843,���k��,2.0,��
2017/11/02,05:30,0.905,1.439,0.904,1.704,1.156,0.497,0.903,0.843,���k��,2.0,��
2017/11/02,05:40,0.901,1.435,0.904,1.700,1.154,0.500,0.905,0.843,�k�k��,1.7,��
2017/11/02,05:50,0.902,1.437,0.905,1.700,1.154,0.497,0.904,0.843,�k�k��,3.0,��
2017/11/02,06:00,0.902,1.437,0.904,1.703,1.156,0.498,0.905,0.841,�k��,3.5,��
2017/11/02,06:10,0.901,1.437,0.904,1.703,1.154,0.497,0.903,0.844,�k��,3.7,��
2017/11/02,06:20,0.900,1.437,0.905,1.705,1.156,0.497,0.905,0.843,�k��,4.2,��
2017/11/02,06:30,0.904,1.434,0.905,1.703,1.157,0.497,0.905,0.842,�k��,4.2,��
2017/11/02,06:40,0.901,1.436,0.902,1.701,1.156,0.498,0.903,0.841,���k��,3.6,��
2017/11/02,06:50,0.902,1.436,0.904,1.703,1.156,0.497,0.905,0.843,�k��,3.3,��
2017/11/02,07:00,0.903,1.435,0.902,1.701,1.158,0.499,0.905,0.842,�k��,2.9,��
2017/11/02,07:10,0.901,1.436,0.904,1.703,1.156,0.497,0.905,0.841,�k��,4.1,��
2017/11/02,07:20,0.903,1.435,0.904,1.704,1.157,0.498,0.905,0.844,�k��,3.8,��
2017/11/02,07:30,0.904,1.438,0.903,1.702,1.155,0.498,0.902,0.843,�k��,3.6,��
2017/11/02,07:40,0.903,1.435,0.903,1.703,1.152,0.496,0.904,0.843,���k��,3.0,��
2017/11/02,07:50,0.905,1.436,0.904,1.703,1.149,0.498,0.904,0.842,���k��,3.3,��
2017/11/02,08:00,0.904,1.435,0.906,1.705,1.152,0.498,0.902,0.844,���k��,3.0,��
2017/11/02,08:10,0.904,1.436,0.905,1.703,1.151,0.498,0.904,0.843,���k��,2.8,��
2017/11/02,08:20,0.902,1.436,0.905,1.702,1.151,0.497,0.905,0.846,���k��,3.2,��
2017/11/02,08:30,0.904,1.436,0.905,1.700,1.150,0.499,0.905,0.843,�k��,2.5,��
2017/11/02,08:40,0.906,1.438,0.904,1.696,1.152,0.498,0.903,0.844,�k��,1.9,��
2017/11/02,08:50,0.904,1.440,0.905,1.701,1.152,0.498,0.903,0.844,�k��,1.1,��
2017/11/02,09:00,0.906,1.435,0.906,1.705,1.153,0.498,0.905,0.845,�k��,2.5,��
2017/11/02,09:10,0.906,1.437,0.906,1.702,1.151,0.499,0.905,0.845,�k��,2.2,��
2017/11/02,09:20,0.907,1.435,0.906,1.702,1.154,0.498,0.903,0.844,�k�k��,2.3,��
2017/11/02,09:30,0.903,1.431,0.907,1.706,1.154,0.499,0.904,0.844,�k�k��,2.2,��
2017/11/02,09:40,0.904,1.433,0.906,1.704,1.151,0.496,0.905,0.844,�k,2.3,��
2017/11/02,09:50,0.903,1.435,0.908,1.703,1.153,0.498,0.904,0.843,�k��,3.1,��
2017/11/02,10:00,0.901,1.433,0.905,1.705,1.151,0.498,0.903,0.844,�k�k��,3.4,��
2017/11/02,10:10,0.901,1.432,0.906,1.705,1.155,0.496,0.906,0.844,�k�k��,2.9,��
2017/11/02,10:20,0.904,1.434,0.906,1.706,1.154,0.498,0.905,0.843,�k�k��,2.8,��
2017/11/02,10:30,0.901,1.433,0.904,1.707,1.153,0.495,0.905,0.841,�k�k��,2.6,��
2017/11/02,10:40,0.903,1.433,0.905,1.704,1.155,0.497,0.904,0.842,�k�k��,2.6,��
2017/11/02,10:50,0.902,1.433,0.907,1.710,1.154,0.497,0.904,0.842,�k��,2.3,��
2017/11/02,11:00,0.904,1.435,0.905,1.703,1.155,0.495,0.904,0.845,�k��,2.9,��
2017/11/02,11:10,0.902,1.434,0.904,1.709,1.155,0.497,0.905,0.841,���k��,2.3,��
2017/11/02,11:20,0.903,1.434,0.906,1.707,1.154,0.498,0.906,0.840,�k��,2.0,��
2017/11/02,11:30,0.903,1.434,0.906,1.704,1.152,0.498,0.904,0.843,�k�k��,1.9,��
2017/11/02,11:40,0.903,1.437,0.906,1.704,1.156,0.498,0.905,0.842,���k��,1.7,��
2017/11/02,11:50,0.904,1.437,0.906,1.708,1.156,0.498,0.905,0.844,���쓌,1.4,��
2017/11/02,12:00,0.903,1.437,0.905,1.707,1.157,0.499,0.905,0.844,���쓌,1.4,��
2017/11/02,12:10,0.905,1.436,0.907,1.707,1.155,0.498,0.904,0.843,��,1.2,��
2017/11/02,12:20,0.903,1.439,0.907,1.707,1.154,0.498,0.904,0.843,��,2.0,��
2017/11/02,12:30,0.904,1.439,0.907,1.708,1.156,0.502,0.905,0.841,�쓌,2.6,��
2017/11/02,12:40,0.903,1.439,0.905,1.711,1.156,0.499,0.906,0.841,��쓌,1.7,��
2017/11/02,12:50,0.905,1.438,0.904,1.709,1.156,0.496,0.906,0.841,���쓌,1.5,��
2017/11/02,13:00,0.903,1.440,0.905,1.710,1.158,0.499,0.906,0.841,�쓌,1.5,��
2017/11/02,13:10,0.904,1.436,0.905,1.708,1.158,0.498,0.906,0.842,�쓌,2.2,��
2017/11/02,13:20,0.903,1.439,0.907,1.709,1.156,0.499,0.903,0.842,��쓌,2.3,��
2017/11/02,13:30,0.905,1.438,0.904,1.708,1.155,0.497,0.905,0.842,�쓌,2.2,��
2017/11/02,13:40,0.905,1.438,0.906,1.710,1.157,0.499,0.906,0.842,���쓌,1.5,��
2017/11/02,13:50,0.905,1.441,0.904,1.705,1.156,0.499,0.904,0.841,���쓌,2.0,��
2017/11/02,14:00,0.906,1.440,0.905,1.710,1.157,0.497,0.906,0.842,���쓌,2.3,��
2017/11/02,14:10,0.905,1.440,0.907,1.707,1.158,0.500,0.905,0.842,���쓌,2.2,��
2017/11/02,14:20,0.906,1.436,0.904,1.709,1.158,0.500,0.907,0.841,���쓌,2.3,��
2017/11/02,14:30,0.905,1.438,0.905,1.706,1.160,0.499,0.905,0.841,��,2.3,��
2017/11/02,14:40,0.902,1.439,0.905,1.708,1.159,0.497,0.905,0.842,���쓌,2.0,��
2017/11/02,14:50,0.905,1.441,0.907,1.707,1.157,0.499,0.906,0.841,��,1.7,��
2017/11/02,15:00,0.906,1.438,0.906,1.709,1.162,0.500,0.905,0.841,���쓌,0.9,��
2017/11/02,15:10,0.905,1.444,0.907,1.709,1.158,0.501,0.904,0.843,�쓌,1.5,��
2017/11/02,15:20,0.905,1.444,0.908,1.710,1.158,0.499,0.904,0.844,��,1.2,��
2017/11/02,15:30,0.906,1.443,0.908,1.710,1.158,0.500,0.906,0.843,�k��,0.8,��
2017/11/02,15:40,0.907,1.446,0.909,1.710,1.162,0.500,0.906,0.845,���쓌,0.6,��
2017/11/02,15:50,0.909,1.444,0.910,1.710,1.161,0.501,0.906,0.844,�쓌,1.2,��
2017/11/02,16:00,0.906,1.445,0.910,1.709,1.158,0.500,0.905,0.845,�쓌,0.6,��
2017/11/02,16:10,0.907,1.443,0.908,1.710,1.159,0.500,0.907,0.845,���k��,0.8,��
2017/11/02,16:20,0.906,1.444,0.909,1.709,1.159,0.502,0.907,0.846,��쓌,1.4,��
2017/11/02,16:30,0.909,1.445,0.907,1.709,1.158,0.501,0.907,0.845,-,CALM,��
2017/11/02,16:40,0.908,1.444,0.907,1.709,1.161,0.500,0.907,0.843,��,0.6,��
2017/11/02,16:50,0.908,1.446,0.907,1.709,1.160,0.500,0.907,0.844,-,CALM,��
2017/11/02,17:00,0.907,1.447,0.905,1.711,1.160,0.499,0.906,0.844,��,0.8,��
2017/11/02,17:10,0.905,1.441,0.907,1.709,1.160,0.501,0.906,0.844,�쐼,0.9,��
2017/11/02,17:20,0.903,1.445,0.906,1.708,1.159,0.499,0.907,0.843,-,CALM,��
2017/11/02,17:30,0.903,1.442,0.908,1.707,1.158,0.501,0.906,0.844,-,CALM,��
2017/11/02,17:40,0.905,1.444,0.907,1.709,1.160,0.500,0.906,0.844,�k��,0.6,��
2017/11/02,17:50,0.906,1.445,0.908,1.707,1.160,0.500,0.907,0.844,-,CALM,��
2017/11/02,18:00,0.904,1.442,0.909,1.708,1.162,0.500,0.908,0.844,-,CALM,��
2017/11/02,18:10,0.906,1.443,0.907,1.710,1.161,0.500,0.907,0.844,�k�k��,0.8,��
2017/11/02,18:20,0.904,1.445,0.906,1.708,1.159,0.499,0.907,0.844,�k�k��,0.9,��
2017/11/02,18:30,0.905,1.445,0.907,1.709,1.160,0.500,0.906,0.842,-,CALM,��
2017/11/02,18:40,0.907,1.443,0.906,1.708,1.158,0.501,0.905,0.844,-,CALM,��
2017/11/02,18:50,0.904,1.444,0.910,1.706,1.161,0.500,0.906,0.842,-,CALM,��
2017/11/02,19:00,0.906,1.443,0.908,1.707,1.159,0.500,0.906,0.844,�k,0.6,��
2017/11/02,19:10,0.905,1.446,0.908,1.706,1.160,0.500,0.906,0.843,�k�k��,1.5,��
2017/11/02,19:20,0.906,1.442,0.907,1.707,1.160,0.498,0.905,0.844,�k�k��,1.7,��
2017/11/02,19:30,0.904,1.443,0.907,1.707,1.159,0.499,0.906,0.844,�k�k��,1.7,��
2017/11/02,19:40,0.905,1.444,0.906,1.709,1.160,0.499,0.907,0.843,�k�k��,1.4,��
2017/11/02,19:50,0.904,1.441,0.909,1.708,1.159,0.498,0.905,0.844,�k�k��,1.5,��
2017/11/02,20:00,0.906,1.441,0.908,1.708,1.160,0.500,0.906,0.844,�k�k��,0.8,��
2017/11/02,20:10,0.905,1.442,0.905,1.707,1.158,0.499,0.905,0.844,-,CALM,��
2017/11/02,20:20,0.901,1.443,0.905,1.706,1.160,0.498,0.906,0.842,-,CALM,��
2017/11/02,20:30,0.902,1.443,0.905,1.706,1.161,0.497,0.905,0.843,��,0.9,��
2017/11/02,20:40,0.903,1.444,0.906,1.706,1.159,0.498,0.905,0.844,��,0.6,��
2017/11/02,20:50,0.905,1.443,0.906,1.707,1.159,0.499,0.906,0.843,���k��,0.6,��
2017/11/02,21:00,0.905,1.442,0.907,1.705,1.160,0.499,0.904,0.844,�k��,0.6,��
2017/11/02,21:10,0.905,1.443,0.908,1.704,1.160,0.499,0.906,0.843,���k��,0.9,��
2017/11/02,21:20,0.907,1.442,0.908,1.708,1.163,0.498,0.904,0.845,���k��,1.5,��
2017/11/02,21:30,0.903,1.442,0.906,1.707,1.159,0.500,0.906,0.844,���k��,1.9,��
2017/11/02,21:40,0.903,1.443,0.908,1.708,1.160,0.497,0.907,0.842,�k��,1.1,��
2017/11/02,21:50,0.903,1.441,0.907,1.705,1.160,0.499,0.905,0.842,�k��,1.4,��
2017/11/02,22:00,0.905,1.443,0.906,1.708,1.162,0.499,0.904,0.843,���k��,1.2,��
2017/11/02,22:10,0.903,1.443,0.905,1.706,1.162,0.499,0.907,0.844,�k��,1.4,��
2017/11/02,22:20,0.905,1.441,0.906,1.709,1.161,0.500,0.906,0.843,�k��,1.5,��
2017/11/02,22:30,0.903,1.441,0.906,1.708,1.162,0.499,0.907,0.843,���k��,1.5,��
2017/11/02,22:40,0.904,1.444,0.905,1.708,1.160,0.500,0.906,0.843,�k�k��,1.5,��
2017/11/02,22:50,0.903,1.442,0.907,1.706,1.162,0.499,0.906,0.844,�k��,1.4,��
2017/11/02,23:00,0.903,1.442,0.905,1.708,1.163,0.498,0.906,0.844,�k�k��,0.9,��
2017/11/02,23:10,0.905,1.440,0.906,1.707,1.161,0.497,0.906,0.842,�k,0.8,��
2017/11/02,23:20,0.900,1.441,0.907,1.707,1.161,0.500,0.905,0.845,�k,1.5,��
2017/11/02,23:30,0.903,1.440,0.908,1.705,1.163,0.500,0.906,0.843,�k,1.2,��
2017/11/02,23:40,0.901,1.439,0.906,1.708,1.163,0.498,0.905,0.845,�k,1.7,��
2017/11/02,23:50,0.905,1.441,0.907,1.709,1.163,0.499,0.907,0.844,�k,1.9,��
